AEOLUS (43600 NORAD) Tracking and Keplerian Element Data

This shows tracking and keplerian element data for the satellite.

Feedback or suggestion? Click here.




ElementValue
Catalog43600
NameAEOLUS
Epoch Orbit1324
Epoch Day318.48530003
Epoch Year2018
RAAN323.4631
Inclination96.7311
Eccentricity0.0004993
Argument of Perigee89.9778
Mean Anonmoly270.3799
Mean Motion15.86840094
Decay Rate-1.37E-06
L11 43600U 18066A 18318.48530003 -.00000137 00000-0 00000+0 0 9999
L22 43600 96.7311 323.4631 0004993 89.9778 270.3799 15.86840094 13249

Live tracking and technical data element details for AEOLUS (NORAD 43600). AEOLUS can be tracked NOW for your location showing map with azimuth and elevation plus other details from your city location.

Track the satellite on the map from your city or location and see movement details for azimuth, elevation, latitude, longitude, range, height, and movement on the map or in text.







IsCatalogInMostPopularTable: catalog: 43600, numindb: 26
Update: records affected: 1



GetName: 43600 AEOLUS

Hit Count: updated at: Fri, 16 Nov 2018 02:53:49 GMT